Weather History for KMPV - January, 2013

Change the Weather History Date:

Wednesday, January 30, 2013

  Actual Average Record
Temperature  
Mean Temperature 40 °F 17 °F  
Max Temperature 49 °F 27 °F 49 °F (1950)
Min Temperature 31 °F 7 °F -19 °F (1952)
Degree Days  
Heating Degree Days 25 48  
Month to date heating degree days 1352 1452  
Since 1 July heating degree days 4315 4600  
Cooling Degree Days 0 0  
Month to date cooling degree days 0  
Year to date cooling degree days 0  
Moisture  
Dew Point 40 °F    
Average Humidity 95    
Maximum Humidity 100    
Minimum Humidity 89    
Precipitation  
Precipitation 0.15 in 0.08 in 0.71 in (1990)
Month to date precipitation 0.52 2.36  
Year to date precipitation 0.52 2.36  
Sea Level Pressure  
Sea Level Pressure 29.67 in    
Wind  
Wind Speed 9 mph (South)    
Max Wind Speed 18 mph    
Max Gust Speed 24 mph    
Visibility 8 miles    
Events Fog , Rain    
T = Trace of Precipitation, MM = Missing Value Source: NWS Daily Summary

Daily Weather History Graph

Daily Weather History Graph

Search for Another Location

Airport or City:

Trip Planner

Search our weather history database for the weather conditions in past years. The results will help you decide how hot, cold, wet, or windy it might be!

Date:

Astronomy

Jan. 30, 2013 Rise Set
Actual Time 7:10 AM EST 4:57 PM EST
Civil Twilight 6:39 AM EST 5:28 PM EST
Nautical Twilight 6:04 AM EST 6:03 PM EST
Astronomical Twilight 5:30 AM EST 6:37 PM EST
Moon 9:04 PM EST (1/30) 8:26 AM EST (1/30)
Length of Visible Light 10h 49m
Length of Day
9h 47m
Waning Gibbous, 88% of the Moon is Illuminated
Jan 30
Waning Gibbous
Feb 3
Last Quarter
Feb 10
New
Feb 17
First Quarter
Feb 25
Full

Hourly Weather History & Observations

Time (EST) Temp. Windchill Dew Point Humidity Pressure Visibility Wind Dir Wind Speed Gust Speed Precip Events Conditions
12:34 AM 30.2 °F 21.9 °F 30.2 °F 100% 30.01 in 9.0 mi South 9.2 mph - 0.00 in Rain Light Freezing Rain
12:51 AM 30.9 °F 24.3 °F 30.0 °F 96% 30.05 in 8.0 mi Variable 6.9 mph - 0.00 in Rain Light Freezing Rain
12:58 AM 32.0 °F 24.2 °F 30.2 °F 93% 29.99 in 6.0 mi South 9.2 mph - 0.00 in   Overcast
1:21 AM 32.0 °F 23.6 °F 30.2 °F 93% 30.00 in 8.0 mi South 10.4 mph - N/A Rain Light Freezing Rain
1:51 AM 32.0 °F 24.8 °F 30.9 °F 96% 30.04 in 5.0 mi South 8.1 mph 17.3 mph 0.04 in Rain Light Freezing Rain
2:51 AM 32.0 °F 24.2 °F 30.9 °F 96% 30.00 in 9.0 mi South 9.2 mph - 0.01 in   Overcast
3:51 AM 33.1 °F 27.7 °F 30.9 °F 92% 29.96 in 10.0 mi South 5.8 mph - 0.02 in Rain Light Rain
4:51 AM 33.1 °F 26.9 °F 32.0 °F 96% 29.93 in 10.0 mi SSW 6.9 mph - 0.01 in   Overcast
5:51 AM 33.1 °F 26.9 °F 33.1 °F 100% 29.89 in 9.0 mi SSW 6.9 mph - N/A   Overcast
6:51 AM 34.0 °F 26.0 °F 33.1 °F 96% 29.86 in 8.0 mi South 10.4 mph - N/A   Overcast
7:51 AM 35.1 °F 29.3 °F 35.1 °F 100% 29.84 in 8.0 mi South 6.9 mph - N/A   Overcast
8:51 AM 36.0 °F 28.0 °F 36.0 °F 100% 29.81 in 7.0 mi SSE 11.5 mph - N/A   Overcast
9:51 AM 37.9 °F 33.5 °F 37.0 °F 97% 29.76 in 8.0 mi SSW 5.8 mph 16.1 mph N/A   Overcast
10:51 AM 39.0 °F 34.0 °F 37.9 °F 96% 29.72 in 9.0 mi South 6.9 mph - N/A   Overcast
11:51 AM 41.0 °F 34.7 °F 39.9 °F 96% 29.67 in 9.0 mi South 10.4 mph - N/A   Overcast
12:51 PM 42.1 °F 38.4 °F 41.0 °F 96% 29.61 in 8.0 mi South 5.8 mph - N/A   Overcast
1:51 PM 44.6 °F 43.1 °F 42.8 °F 93% 29.52 in 8.0 mi South 3.5 mph - N/A   Overcast
2:51 PM 45.0 °F 40.6 °F 44.1 °F 97% 29.55 in 8.0 mi South 8.1 mph - 0.00 in Rain Light Rain
3:43 PM 44.6 °F 39.7 °F 44.6 °F 100% 29.52 in 8.0 mi South 9.2 mph - 0.00 in   Overcast
3:51 PM 45.0 °F 39.3 °F 44.1 °F 97% 29.53 in 9.0 mi South 11.5 mph - 0.00 in   Overcast
4:51 PM 44.6 °F 38.4 °F 44.6 °F 100% 29.47 in 7.0 mi South 12.7 mph - N/A Rain Light Rain
5:04 PM 46.4 °F 39.5 °F 44.6 °F 93% 29.46 in 9.0 mi South 17.3 mph 24.2 mph 0.00 in Rain Light Rain
5:51 PM 48.0 °F - 46.9 °F 96% 29.50 in 9.0 mi SSW 9.2 mph - 0.01 in   Overcast
6:51 PM 48.0 °F - 46.9 °F 96% 29.45 in 10.0 mi South 16.1 mph - 0.01 in Rain Light Rain
7:51 PM 48.9 °F - 48.0 °F 97% 29.47 in 10.0 mi SSW 6.9 mph - 0.00 in   Overcast
8:14 PM 46.4 °F 42.4 °F 46.4 °F 100% 29.44 in 0.8 mi ENE 8.1 mph - 0.00 in Rain Light Rain
8:43 PM 44.6 °F - 44.6 °F 100% 29.42 in 0.2 mi Calm Calm - 0.00 in Fog Fog
8:51 PM 46.0 °F 40.6 °F 46.0 °F 100% 29.45 in 0.2 mi South 11.5 mph - 0.00 in Fog Fog
8:58 PM 48.2 °F - 48.2 °F 100% 29.44 in 3.0 mi SSW 6.9 mph - 0.00 in Rain Light Rain
9:51 PM 48.0 °F - 48.0 °F 100% 29.41 in 10.0 mi South 10.4 mph 20.7 mph 0.01 in Rain Light Rain
10:51 PM 48.0 °F - 46.9 °F 96% 29.39 in 10.0 mi South 8.1 mph - 0.01 in Rain Light Rain
11:51 PM 46.0 °F 39.6 °F 46.0 °F 100% 29.36 in 10.0 mi South 15.0 mph - 0.01 in Rain Light Rain